Regional Weather Roundup
Issued by NWS

Home | Current Version | Previous Version | Graphics & Text | Print | Product List | Glossary On
Versions: 1 2 3 4 5 6 7 8 9 10 11 12 13 14 15 16 17 18 19 20 21 22 23 24 25 26 27 28 29 30 31 32 33 34 35 36 37 38 39 40 41 42 43 44 45 46 47 48 49 50
770
ASUS43 KDTX 221601
RWRMI
MICHIGAN HOURLY REGIONAL WEATHER ROUNDUP
NATIONAL WEATHER SERVICE DETROIT/PONTIAC MI
1200 PM EDT SUN APR 22 2018

NOTE: "FAIR" INDICATES FEW OR NO CLOUDS BELOW 12,000 FEET WITH NO
SIGNIFICANT WEATHER AND/OR OBSTRUCTION TO VISIBILITY.

MIZ047>049-052>055-059>063-066>070-074>076-081>083-221700-
SOUTHEAST LOWER MICHIGAN

CITY           SKY/WX    TMP DP  RH WIND       PRES   REMARKS
ADRIAN         FAIR      55  25  31 SE13G18   30.41F
ALMA           FAIR      58  30  34 CALM      30.43R
ANN ARBOR      FAIR      57  25  29 E12       30.41F
BAD AXE        FAIR      58  16  18 SW8       30.44F
CARO           FAIR      58  18  21 NE3       30.42S
DETROIT CITY   FAIR      55  25  31 SE13      30.43F
DETROIT        FAIR      57  24  28 E9        30.43S
FLINT          FAIR      57  24  28 VRB6      30.42S
GROSSE ILE     FAIR      56  27  32 E8        30.41F
HILLSDALE      FAIR      54  23  30 E12G18    30.38F
HOWELL         FAIR      57  21  25 NE8       30.41S

CITY           SKY/WX    TMP DP  RH WIND       PRES   REMARKS
JACKSON        FAIR      57  25  29 E14       30.40F
LAMBERTVILLE   FAIR      55  24  29 E14G20    30.41S
LANSING        FAIR      57  26  30 E9        30.42S
LAPEER         FAIR      56  23  28 SE7       30.43S
MASON          FAIR      59  16  18 E9G16     30.41S
MT. CLEMENS    MOSUNNY   55  31  40 NE6       30.41F
PONTIAC        PTSUNNY   55  25  31 E8        30.41F
PORT HOPE        N/A     42  35  76 E8        30.45R
PORT HURON     FAIR      57  25  28 NE6       30.43F
TRI CITIES     FAIR      57  28  33 E8        30.43F
MIDLAND        FAIR      57  30  35 NE8       30.42S
TROY           FAIR      56  22  26 E8        30.43F
SAGINAW HB     FAIR      55  27  33 E7        30.42F
$$
MIZ043>046-050>051-056>058-064>065-071>073-077>080-221700-
SOUTHWEST LOWER MICHIGAN

CITY           SKY/WX    TMP DP  RH WIND       PRES   REMARKS
BATTLE CREEK   FAIR      57  25  29 SE10G20   30.40F
BENTON HARBOR  FAIR      58  25  28 E16       30.38S
BIG RAPIDS     FAIR      58  15  18 SE10      30.41S
COLDWATER      FAIR      56  25  30 E9        30.38F
HOLLAND        FAIR      58  28  32 E9        30.40F
GRAND RAPIDS   PTSUNNY   58  28  32 E12       30.41F
IONIA          FAIR      57  27  30 NE8       30.41S
KALAMAZOO      FAIR      58  22  24 E10G20    30.39F
LUDINGTON      FAIR      55  28  34 W7        30.40F
MARSHALL       FAIR      57  22  25 E12G18    30.40S
MOUNT PLEASANT FAIR      60  29  31 CALM      30.41F
MUSKEGON       FAIR      60  24  25 SE8       30.40F
SOUTH HAVEN    FAIR      58  20  22 E13G20    30.38F
$$
MIZ016>042-221700-
NORTHERN LOWER MICHIGAN

CITY           SKY/WX    TMP DP  RH WIND       PRES   REMARKS
ALPENA         FAIR      58  18  21 CALM      30.45F
BEAVER ISLAND  FAIR      55  15  20 E3        30.43F
BELLAIRE       FAIR      55  22  27 CALM      30.42F
CADILLAC       FAIR      58  19  21 S7        30.39F
CHARLEVOIX     FAIR      45  28  51 NW3       30.46S
FRANKFORT      FAIR      58  24  26 NE3       30.41F
GAYLORD        FAIR      52  20  28 S3        30.42S
GRAYLING       FAIR      55  23  29 E5        30.41F
HARBOR SPRINGS FAIR      56  17  21 NE6       30.43F
HOUGHTON LAKE  FAIR      57  24  28 W5        30.42F
MANISTEE       FAIR      61  22  22 CALM      30.40F
OSCODA         FAIR      52  21  29 E5        30.45F
PELLSTON       FAIR      55  17  22 SE6       30.44S
ROGERS CITY    FAIR      47  20  35 E6        30.45F
TRAVERSE CITY  FAIR      52  27  38 N3        30.41F
$$
MIZ007>008-015-221700-
EASTERN UPPER MICHIGAN

CITY           SKY/WX    TMP DP  RH WIND       PRES   REMARKS
KINROSS        FAIR      53  20  27 SE5       30.43F
MACKINAC ISLAN FAIR      52  16  23 SE5       30.44S
NEWBERRY       FAIR      49  17  28 S12       30.42S
S. S. MARIE    FAIR      53  26  35 CALM      30.43S
MUNISING         N/A     55  27  34 S10       30.38F
$$
MIZ004>006-011>014-085-221700-
CENTRAL UPPER MICHIGAN

CITY           SKY/WX    TMP DP  RH WIND       PRES   REMARKS
MANISTIQUE     FAIR      48  20  33 S6        30.43S
ESCANABA       FAIR      48  30  49 SE7       30.42S
MENOMINEE      FAIR      51  32  48 SE6       30.42S
SAWYER-GWINN   SUNNY     50  23  34 CALM      30.38S
$$
MIZ001>003-009>011-084-221700-
WESTERN UPPER MICHIGAN

CITY           SKY/WX    TMP DP  RH WIND       PRES   REMARKS
IRON MOUNTAIN  FAIR      55  23  28 CALM      30.38S
HOUGHTON       FAIR      49  20  31 SE6       30.38S
COPPER HARBOR    N/A     52  10  18 VRB7      30.37F
IRONWOOD       FAIR      55  18  23 W3        30.37F
$$

ABBREVIATIONS USED IN REMARKS
   TC - TEMPERATURE IN CELSIUS
  WCI - WIND CHILL INDEX
   HX - HEAT INDEX
  VSB - VISIBILITY





USA.gov is the U.S. government's official web portal to all federal, state and local government web resources and services.